Wetbulb
54.98 55.55 55.74 56.12 57.10 59.58 61.11 60.74 58.64 58.78 57.06 55.28 54.21 55.95 54.35 53.98 53.91 50.76 46.28 49.37 51.96 55.85 55.46 51.56 50.32 48.95 48.06 44.58 46.21 46.52 37.65 35.30 35.74 37.34 39.23 44.08 42.56 46.37 47.79 45.72 47.59 50.08 54.83 58.08 60.14
55.04 54.49 54.91 55.41 56.11 57.89 60.01 60.67 58.91 58.71 57.10 54.93 54.26 55.73 54.32 53.51 49.29 46.11 51.72 55.76 55.90 55.11 50.63 47.88 44.04 45.22 40.57 41.21 42.44 39.51 35.25 36.62 41.17 41.28 40.20 42.89 42.21 42.84 43.74 44.65 45.83 48.17 57.86 59.09 58.63
53.76 54.17 54.09 54.15 55.29 57.12 58.75 59.52 58.62 58.34 56.79 54.62 54.66 55.87 54.23 52.89 44.87 43.49 55.52 55.07 56.15 56.20 54.00 49.11 46.49 43.65 37.98 38.62 38.29 38.83 35.31 40.56 42.06 43.51 44.20 42.66 41.93 44.07 41.38 40.99 45.62 46.70 50.13 57.50 57.44
54.00 54.07 54.04 53.91 54.33 55.45 57.35 59.45 58.54 57.62 56.30 54.64 54.65 55.26 53.75 49.63 34.33 48.44 55.14 56.23 56.96 54.52 50.76 46.03 42.84 37.90 35.37 33.43 37.47 33.57 39.16 40.85 42.20 43.73 42.50 40.51 42.71 40.96 41.43 42.29 47.43 49.05 53.56 53.80 55.29
54.14 53.62 53.70 53.59 53.77 54.85 57.06 58.25 58.51 56.90 55.56 54.46 54.87 54.74 49.82 42.23 41.33 54.68 57.46 57.49 53.73 51.15 45.54 42.87 39.07 36.98 32.57 33.91 35.77 32.00 35.27 38.57 40.02 40.44 40.02 40.81 38.50 39.73 41.10 44.19 46.60 48.51 51.17 52.20 53.17
53.92 53.68 53.19 53.39 53.56 54.39 55.53 58.41 57.13 55.85 54.74 54.41 55.33 53.90 45.46 35.08 50.46 53.25 53.21 52.49 50.19 48.07 44.76 43.64 41.12 41.24 36.02 35.04 33.21 35.69 36.70 37.23 39.16 38.93 39.30 37.42 37.37 39.16 41.15 43.36 45.01 46.53 47.06 52.07 52.44
53.70 53.53 53.20 52.96 53.23 55.40 57.25 57.56 56.90 55.23 54.61 55.10 54.77 51.00 44.45 38.79 47.14 50.72 50.68 48.35 48.28 47.58 44.02 45.89 45.08 40.24 38.69 34.69 38.61 36.93 32.58 35.17 36.57 38.01 37.55 39.63 34.17 35.01 39.83 42.62 43.06 44.82 46.45 51.00 52.16
53.65 53.55 52.85 52.72 52.72 54.28 57.29 56.02 55.19 54.52 54.07 54.46 54.49 48.63 39.63 48.80 46.62 47.99 47.54 46.83 48.50 48.56 47.02 46.64 46.22 41.64 37.75 38.12 36.81 32.75 31.37 25.54 34.34 37.29 38.17 37.24 28.37 36.15 39.43 40.19 41.00 41.98 44.29 48.39 51.48
52.73 53.05 52.63 52.55 52.51 53.79 55.65 54.14 53.03 53.11 53.24 53.71 48.86 44.78 37.54 49.11 43.95 46.20 46.20 45.18 45.99 46.39 47.12 47.57 44.98 38.20 37.82 31.21 29.16 29.06 21.56 25.82 30.23 37.46 36.53 35.32 30.56 36.91 39.67 39.65 40.03 40.95 42.53 46.16 48.24
52.17 52.26 52.44 52.47 53.07 54.95 53.43 53.14 53.58 52.94 51.69 52.05 49.35 38.97 42.25 41.31 44.70 45.81 46.08 47.21 43.97 43.63 43.07 41.30 37.55 31.44 32.01 31.54 19.33 18.57 24.90 27.92 28.15 34.06 35.54 34.06 32.59 36.30 37.97 38.16 37.98 39.46 41.29 45.24 47.29
51.76 51.77 52.09 56.16 55.65 53.29 52.42 50.60 45.09 43.01 44.69 38.84 40.02 40.27 42.33 45.48 47.59 45.19 46.81 44.45 43.12 39.05 31.49 36.86 30.45 25.91 28.19 31.28 30.85 29.53 27.78 26.45 30.27 35.86 33.83 32.53 33.04 35.35 37.92 38.45 37.83 40.43 40.13 44.21 46.27
51.55 51.43 51.99 54.41 53.79 52.77 49.11 44.44 42.61 42.67 36.19 43.24 43.46 43.48 45.72 46.53 40.69 43.82 46.85 38.45 37.33 30.66 34.61 32.37 28.61 32.96 34.83 34.39 32.48 31.79 29.89 28.73 31.97 35.08 34.52 33.18 32.18 35.72 38.18 38.36 39.82 41.05 42.53 43.79 44.62
50.89 50.76 51.90 53.82 52.24 49.57 46.84 45.99 49.47 46.19 36.18 39.68 42.81 43.24 43.70 44.66 40.77 40.33 43.08 40.35 36.50 34.87 34.12 30.17 32.32 37.60 35.41 33.78 31.75 30.76 28.86 29.34 27.05 33.22 35.07 31.96 28.90 32.10 36.80 39.09 40.01 42.19 43.70 44.59 45.51
51.65 51.00 51.42 52.88 48.35 47.81 45.61 49.18 49.17 46.17 30.48 34.37 38.60 42.50 43.89 43.58 39.22 45.40 45.37 41.70 37.96 33.08 35.78 33.15 37.08 35.07 34.55 32.98 33.61 27.53 33.98 34.24 33.02 29.47 19.85 32.24 22.04 30.03 34.15 36.16 40.29 40.22 41.90 43.49 46.23
52.36 53.85 53.39 52.23 46.39 44.42 47.52 49.98 48.08 42.40 15.79 36.23 39.39 47.78 44.83 40.39 41.72 41.39 45.93 40.57 36.45 36.10 35.11 33.45 35.00 34.61 31.58 31.96 34.92 31.15 36.02 33.87 33.33 31.57 29.98 30.35 27.56 33.61 38.15 36.71 39.09 41.30 41.09 43.21 48.53
52.21 52.21 51.54 48.64 48.19 47.83 49.47 48.11 43.63 28.26 11.71 27.42 39.57 38.29 38.39 40.22 41.65 41.72 41.06 43.23 42.11 36.84 37.02 35.57 40.47 37.18 36.30 38.37 39.15 40.20 35.47 35.26 34.33 32.03 24.88 31.37 29.29 31.38 33.40 36.15 38.24 43.00 42.94 47.50 50.48
52.55 52.22 50.34 50.07 43.78 47.95 46.45 41.70 25.82 15.50 31.43 29.34 32.04 38.39 37.59 37.19 38.76 40.04 38.63 37.10 35.25 30.54 26.19 35.26 35.37 38.34 39.73 37.05 39.74 37.12 32.07 26.04 23.49 23.59 25.80 33.19 30.24 31.66 36.21 40.48 41.08 42.16 42.37 47.76 52.50
51.08 49.72 48.33 47.61 48.25 46.74 43.12 31.22 16.66 29.11 28.80 37.74 37.44 37.09 33.31 37.57 37.13 39.37 37.94 35.65 39.52 37.35 29.47 29.51 21.88 35.45 41.73 37.74 34.26 33.95 33.71 28.36 22.82 23.68 27.77 33.96 27.81 30.76 38.91 42.14 43.80 44.57 46.67 49.18 48.08
50.10 45.16 45.74 47.18 47.98 44.69 36.24 22.55 22.33 28.92 35.75 35.09 35.71 30.85 31.57 36.07 34.93 35.47 34.25 34.48 35.73 35.55 29.20 31.06 28.24 39.48 40.77 42.17 41.00 36.73 33.42 36.36 31.74 32.37 25.91 29.95 32.73 37.12 37.89 39.73 42.56 44.67 44.56 44.45 45.17
44.23 42.24 44.11 47.26 46.16 40.92 31.22 29.00 28.90 36.89 38.38 37.33 29.47 32.96 28.54 32.16 32.29 34.96 33.21 36.68 36.84 38.96 38.07 35.29 30.08 38.56 41.31 43.04 42.37 39.55 39.94 30.57 30.46 24.52 23.40 27.56 28.85 29.32 32.71 36.22 40.12 41.55 42.16 43.66 44.67
41.75 39.41 44.63 46.86 43.98 35.84 25.89 28.35 35.26 39.71 40.33 36.38 33.52 32.53 32.34 32.01 33.34 31.81 33.06 36.90 38.75 38.46 37.92 36.32 35.89 33.09 38.52 35.11 33.30 33.94 32.98 33.24 31.96 29.98 25.51 23.63 28.00 33.33 34.20 39.08 39.12 40.14 42.74 42.80 42.91
40.34 34.40 43.19 45.55 32.48 32.52 29.60 34.96 39.79 38.30 40.78 39.47 37.44 36.17 33.81 34.36 32.93 31.92 32.51 35.41 40.33 39.21 35.29 36.94 33.68 25.36 30.74 37.74 38.32 35.66 34.04 32.84 25.08 25.47 27.40 26.79 28.13 40.08 39.02 40.33 41.13 41.12 42.39 42.99 43.18
37.29 38.50 42.97 42.98 26.62 28.42 34.26 37.21 38.96 38.58 38.78 38.50 37.16 38.54 37.48 34.11 31.51 33.89 34.89 40.95 40.84 38.54 34.26 35.87 29.62 22.18 25.99 30.81 34.39 33.37 35.37 34.81 34.09 29.58 24.04 22.40 29.27 39.41 39.05 39.00 40.28 39.97 41.00 41.96 42.30
37.60 32.60 35.58 37.16 36.33 30.09 32.39 33.73 34.74 40.01 39.58 39.88 38.30 38.62 36.06 33.75 36.02 33.28 34.39 39.79 40.66 38.96 43.32 39.86 31.78 27.51 21.95 26.92 31.86 29.26 33.09 34.01 30.65 22.87 26.35 25.86 27.87 31.51 34.55 36.11 37.47 37.85 38.88 39.45 39.90
38.97 31.46 34.38 26.30 31.96 32.96 33.44 35.65 34.34 34.87 38.99 39.35 36.79 37.23 35.11 31.29 32.64 32.73 35.30 36.43 39.47 42.11 38.23 36.47 27.71 26.39 30.76 33.58 32.07 30.32 31.80 32.31 27.25 30.24 23.78 28.41 29.30 30.59 32.67 33.81 35.28 37.35 38.54 37.72 37.25
39.12 33.68 35.29 33.00 34.98 32.49 34.20 33.63 34.37 36.11 36.67 35.99 35.47 37.20 36.40 32.91 33.04 31.76 34.39 33.55 32.95 37.15 35.18 36.01 28.02 29.06 26.23 32.02 31.12 28.55 31.32 32.68 32.71 32.96 31.66 31.51 30.46 34.92 34.87 36.36 36.95 36.42 36.77 35.17 34.97
43.94 39.78 36.92 34.23 32.08 30.31 32.11 34.83 36.16 37.95 38.43 39.05 37.77 36.16 34.79 36.19 37.25 36.96 36.56 37.52 36.12 33.66 33.69 32.86 29.88 25.97 23.28 28.96 28.40 24.74 28.64 30.06 30.56 32.51 32.72 28.70 32.38 35.67 34.86 37.18 36.30 36.21 36.05 34.63 33.52
MSLP
1016.06 1015.78 1015.46 1015.21 1015.11 1014.67 1014.37 1014.48 1015.19 1015.59 1015.77 1016.02 1016.17 1016.35 1016.22 1016.53 1016.74 1016.69 1016.14 1015.62 1015.37 1015.36 1015.40 1015.50 1015.30 1015.29 1015.31 1015.70 1015.92 1016.15 1016.49 1016.22 1016.06 1015.55 1014.58 1013.60 1012.99 1011.71 1011.32 1010.65 1009.92 1009.44 1009.68 1010.10 1010.60
1015.56 1015.40 1015.31 1014.95 1014.72 1014.64 1014.27 1014.16 1014.80 1015.14 1015.64 1015.94 1015.95 1016.08 1016.27 1016.48 1016.67 1016.31 1015.26 1015.40 1015.44 1015.59 1015.60 1015.87 1015.82 1015.50 1015.89 1015.99 1016.27 1016.47 1016.44 1016.18 1015.83 1015.36 1014.81 1014.17 1013.73 1013.12 1012.54 1011.90 1010.78 1010.49 1010.65 1010.90 1011.14
1015.21 1015.01 1014.90 1014.68 1014.43 1014.60 1014.36 1014.30 1014.44 1014.83 1015.30 1015.83 1015.98 1015.92 1016.34 1016.56 1016.55 1015.91 1015.15 1015.47 1015.64 1015.82 1015.64 1015.64 1015.84 1016.05 1016.47 1016.45 1016.52 1016.36 1016.34 1016.18 1015.67 1015.30 1014.83 1014.48 1013.97 1013.34 1013.30 1012.77 1012.42 1012.06 1011.63 1011.23 1011.41
1014.99 1014.76 1014.56 1014.43 1014.17 1014.21 1014.19 1013.77 1013.93 1014.65 1015.22 1015.62 1016.03 1015.88 1016.15 1016.49 1016.42 1015.83 1015.52 1015.61 1015.85 1015.79 1015.80 1015.86 1016.30 1016.73 1016.88 1017.01 1016.62 1016.69 1016.37 1016.11 1015.61 1015.25 1014.95 1014.58 1014.29 1013.47 1013.38 1013.22 1012.60 1012.14 1011.67 1011.41 1011.24
1014.59 1014.48 1014.33 1014.21 1014.03 1013.94 1013.65 1013.65 1013.75 1014.52 1015.06 1015.56 1016.01 1016.02 1016.28 1016.17 1015.86 1015.72 1015.71 1015.77 1016.02 1016.12 1016.19 1016.25 1016.71 1016.93 1017.32 1017.44 1017.27 1017.04 1016.70 1016.16 1015.69 1015.49 1015.18 1014.65 1014.29 1013.87 1012.69 1012.85 1012.23 1011.99 1011.28 1010.72 1011.20
1014.08 1014.11 1014.11 1013.97 1013.72 1013.59 1013.47 1013.33 1013.87 1014.45 1015.00 1015.59 1015.98 1016.18 1016.21 1015.91 1015.58 1015.76 1016.00 1015.97 1016.16 1016.28 1016.39 1016.46 1016.88 1016.99 1017.46 1017.72 1017.98 1017.68 1017.29 1016.56 1015.99 1015.63 1015.28 1014.90 1014.23 1014.01 1012.70 1012.70 1012.32 1011.72 1011.62 1010.81 1010.84
1013.69 1013.75 1013.75 1013.66 1013.44 1012.96 1012.69 1013.40 1014.20 1014.55 1015.11 1015.70 1016.01 1016.21 1015.96 1015.66 1015.44 1015.82 1016.07 1016.14 1016.29 1016.58 1016.68 1016.77 1016.98 1017.52 1018.06 1018.33 1018.34 1018.24 1018.08 1017.29 1016.29 1015.64 1015.14 1014.93 1014.01 1013.29 1012.98 1012.57 1012.30 1011.72 1011.27 1010.98 1010.64
1013.43 1013.45 1013.47 1013.45 1013.51 1013.53 1013.13 1013.93 1014.38 1014.99 1015.47 1015.86 1016.09 1016.36 1015.91 1015.53 1015.49 1015.94 1016.19 1016.43 1016.46 1016.81 1016.74 1016.82 1017.28 1017.92 1018.16 1018.62 1018.70 1018.80 1018.56 1017.76 1015.95 1015.31 1014.61 1015.14 1013.25 1012.87 1012.56 1012.54 1011.84 1011.55 1011.24 1010.94 1010.41
1013.24 1013.26 1013.33 1013.23 1013.26 1013.67 1013.43 1014.41 1015.21 1015.42 1015.80 1016.09 1016.51 1016.42 1016.10 1015.69 1015.75 1016.03 1016.26 1016.48 1016.71 1016.90 1016.87 1016.91 1017.33 1017.90 1018.49 1019.30 1019.74 1019.51 1019.42 1018.41 1016.87 1015.37 1014.93 1014.55 1013.21 1012.38 1012.31 1012.22 1011.69 1011.24 1011.01 1010.64 1010.15
1013.16 1013.25 1013.20 1012.87 1012.88 1013.37 1014.15 1014.81 1015.24 1015.73 1016.15 1016.33 1016.19 1016.61 1016.10 1015.71 1015.67 1016.03 1016.20 1016.43 1016.78 1017.08 1017.40 1017.56 1017.90 1018.48 1019.07 1019.75 1019.96 1020.02 1019.84 1018.58 1017.25 1015.17 1014.50 1013.74 1012.74 1012.07 1011.87 1011.93 1011.71 1011.18 1010.82 1010.32 1009.80
1013.22 1013.33 1013.14 1011.32 1012.10 1013.52 1014.37 1015.19 1016.15 1016.53 1016.32 1016.19 1015.86 1015.57 1015.47 1015.77 1015.82 1016.21 1016.36 1016.59 1016.92 1017.42 1017.95 1018.19 1018.88 1018.90 1019.10 1019.46 1019.47 1019.51 1019.22 1018.24 1016.59 1014.99 1014.52 1013.36 1012.09 1011.37 1011.25 1011.51 1011.46 1011.03 1010.50 1009.86 1009.35
1013.19 1013.47 1013.33 1013.22 1013.51 1014.18 1014.51 1015.43 1015.97 1016.02 1016.23 1016.05 1015.67 1015.44 1015.55 1015.71 1016.04 1016.34 1016.35 1017.06 1017.44 1017.93 1018.35 1019.07 1018.70 1018.52 1018.83 1018.99 1019.09 1018.89 1018.24 1016.84 1015.43 1014.46 1014.18 1013.02 1011.67 1011.03 1010.71 1010.94 1011.01 1010.54 1009.77 1009.46 1009.31
1013.44 1013.74 1013.99 1014.09 1014.49 1014.85 1015.51 1015.74 1015.72 1015.56 1015.83 1016.37 1015.95 1015.63 1015.69 1015.90 1015.92 1016.42 1016.70 1017.22 1017.78 1018.27 1018.65 1018.82 1018.23 1017.99 1018.17 1018.33 1018.07 1017.47 1016.95 1015.90 1015.40 1014.12 1013.21 1012.50 1011.58 1010.34 1010.48 1010.90 1010.53 1010.19 1009.12 1009.14 1009.22
1013.67 1013.66 1014.14 1014.75 1015.38 1015.67 1015.78 1015.80 1015.75 1015.70 1016.05 1016.77 1016.05 1015.71 1015.81 1015.94 1016.19 1016.30 1016.83 1017.55 1017.93 1018.46 1018.33 1018.32 1017.46 1017.33 1017.09 1016.94 1017.05 1016.36 1015.26 1015.08 1014.77 1014.66 1014.02 1012.76 1012.37 1010.42 1010.30 1010.23 1009.89 1009.60 1009.27 1009.11 1009.15
1014.03 1013.70 1014.37 1014.80 1015.64 1016.03 1016.22 1015.89 1015.86 1016.04 1016.33 1016.63 1015.84 1015.44 1015.53 1015.95 1016.23 1016.60 1017.05 1017.85 1017.91 1018.10 1018.57 1017.36 1017.00 1016.67 1016.46 1015.82 1015.57 1014.85 1014.39 1014.32 1014.47 1014.03 1013.91 1012.68 1013.36 1011.54 1010.79 1010.10 1009.85 1009.42 1009.08 1008.95 1009.14
1014.43 1014.64 1014.68 1015.02 1015.54 1016.36 1016.12 1015.95 1016.20 1016.65 1017.12 1016.53 1015.74 1015.62 1015.65 1015.60 1015.64 1016.53 1017.09 1017.48 1017.57 1017.79 1017.64 1017.10 1016.44 1016.29 1015.20 1014.46 1014.21 1013.74 1013.83 1013.86 1013.74 1013.73 1013.27 1011.95 1012.62 1011.96 1011.67 1011.20 1010.34 1009.79 1009.32 1008.92 1008.92
1014.66 1014.70 1014.77 1015.24 1016.55 1016.37 1016.05 1016.41 1016.74 1016.90 1017.33 1016.55 1015.68 1015.23 1014.96 1015.07 1015.21 1015.66 1016.33 1016.57 1016.83 1017.11 1016.53 1016.08 1015.37 1015.00 1014.57 1013.81 1013.38 1013.61 1013.77 1013.28 1013.22 1013.29 1011.89 1012.03 1012.38 1012.38 1011.75 1010.76 1010.46 1010.36 1009.75 1009.29 1009.03
1015.26 1015.16 1016.17 1016.56 1016.74 1016.43 1016.45 1016.90 1017.32 1017.38 1016.60 1015.54 1014.92 1014.69 1014.50 1014.03 1014.22 1014.64 1015.12 1015.30 1015.40 1015.73 1015.72 1015.46 1014.63 1014.07 1013.45 1013.27 1013.24 1012.97 1013.02 1012.55 1012.07 1011.88 1011.86 1012.01 1012.64 1012.96 1012.00 1010.90 1010.53 1010.47 1009.92 1009.00 1008.39
1015.32 1016.19 1016.90 1017.13 1016.87 1016.63 1017.02 1017.09 1017.76 1017.02 1015.87 1015.22 1014.75 1014.36 1013.93 1013.62 1013.77 1013.98 1014.47 1014.59 1014.62 1014.74 1015.15 1014.81 1014.14 1013.08 1012.69 1012.22 1012.33 1012.00 1012.00 1012.10 1011.81 1011.59 1011.89 1012.76 1013.05 1012.79 1012.66 1011.64 1011.05 1010.73 1010.38 1010.40 1010.40
1016.10 1016.82 1017.60 1017.47 1017.19 1017.18 1017.26 1017.33 1017.12 1016.28 1015.56 1014.83 1014.48 1013.63 1013.50 1013.26 1013.52 1013.49 1014.08 1014.32 1014.11 1014.05 1014.12 1014.21 1013.74 1012.37 1011.70 1011.30 1011.02 1011.48 1010.97 1011.26 1011.46 1011.83 1012.27 1013.13 1013.42 1014.21 1013.51 1012.72 1011.97 1011.28 1010.71 1010.63 1011.22
1016.82 1017.78 1017.94 1017.57 1017.35 1017.54 1017.74 1017.38 1016.63 1015.66 1015.07 1014.68 1014.21 1013.70 1013.42 1013.21 1013.28 1013.54 1014.14 1014.17 1014.00 1013.72 1014.01 1013.89 1013.81 1012.69 1011.86 1011.51 1011.35 1011.13 1010.73 1010.34 1011.02 1011.73 1012.06 1013.10 1014.42 1014.92 1013.89 1013.34 1012.32 1012.28 1012.22 1012.31 1012.09
1017.79 1018.53 1018.27 1017.97 1017.97 1017.77 1017.66 1016.84 1016.14 1015.35 1014.69 1014.42 1014.06 1013.73 1013.49 1013.35 1013.66 1013.73 1013.98 1013.90 1013.69 1013.52 1013.89 1013.72 1013.69 1013.44 1012.82 1011.82 1011.46 1011.30 1011.28 1010.97 1011.43 1012.50 1012.74 1013.80 1015.13 1014.00 1014.20 1013.78 1012.77 1012.71 1012.64 1012.58 1012.57
1018.63 1019.14 1018.64 1018.64 1018.72 1018.18 1017.17 1016.59 1016.02 1015.40 1014.88 1014.42 1014.15 1013.75 1013.47 1013.49 1013.85 1013.79 1013.77 1013.55 1013.57 1013.60 1013.74 1013.93 1014.10 1014.31 1013.46 1012.67 1012.02 1011.78 1011.22 1011.17 1011.62 1012.33 1013.80 1014.38 1015.47 1014.24 1013.67 1013.79 1013.73 1013.42 1013.33 1013.46 1013.35
1018.73 1019.33 1019.34 1018.98 1018.52 1018.03 1017.18 1016.45 1015.91 1015.36 1014.97 1014.56 1014.26 1013.76 1013.68 1013.62 1013.79 1014.03 1013.88 1013.55 1013.33 1013.37 1013.53 1013.91 1014.51 1014.79 1014.93 1014.58 1013.93 1013.05 1012.11 1011.40 1011.74 1013.19 1014.34 1014.89 1015.22 1014.88 1014.46 1014.08 1013.95 1013.88 1013.76 1013.84 1013.80
1018.62 1019.47 1019.30 1019.20 1018.48 1017.72 1017.05 1016.42 1015.85 1015.46 1015.10 1014.72 1014.51 1014.45 1014.14 1014.37 1014.40 1014.35 1014.05 1013.75 1013.46 1013.38 1013.44 1013.94 1014.93 1015.12 1014.94 1014.35 1013.91 1013.62 1013.30 1012.91 1013.02 1013.46 1014.23 1015.14 1015.07 1015.03 1014.74 1014.54 1014.48 1014.35 1014.23 1014.32 1014.27
1018.93 1019.23 1019.01 1018.86 1018.27 1017.71 1017.02 1016.30 1015.81 1015.58 1015.33 1015.13 1015.13 1014.98 1014.59 1014.78 1015.01 1015.02 1014.63 1014.27 1014.35 1013.97 1013.85 1014.16 1015.14 1015.42 1015.40 1014.60 1014.22 1014.17 1013.83 1013.53 1013.54 1013.97 1014.60 1014.84 1015.07 1014.85 1014.85 1014.84 1014.97 1015.03 1015.06 1015.07 1015.36
1018.51 1018.59 1018.90 1018.88 1018.64 1018.02 1017.17 1016.40 1015.93 1015.69 1015.66 1015.43 1015.49 1015.38 1015.28 1015.20 1014.98 1014.78 1014.70 1014.40 1014.23 1014.32 1014.45 1014.74 1015.40 1015.98 1015.98 1015.26 1014.81 1014.70 1014.04 1013.94 1014.01 1013.97 1014.26 1014.56 1014.61 1014.74 1015.13 1015.22 1015.35 1015.69 1016.01 1016.37 1016.71
Wind_Speed
12 13 14 15 14 15 13 14 10 10 8 5 2 5 2 2 5 3 2 2 2 3 3 6 3 5 1 1 3 3 2 10 4 5 7 12 12 12 10 9 8 2 5 5 14
12 11 13 13 12 14 18 17 15 13 9 5 3 5 3 1 3 6 8 6 6 3 0 4 4 3 1 1 2 3 3 4 4 7 10 13 9 14 10 11 9 7 5 6 3
12 12 11 12 14 14 16 13 14 13 11 6 5 8 3 1 2 1 7 6 6 1 3 4 5 3 3 2 2 4 6 7 12 13 14 14 14 8 5 6 8 10 4 6 4
12 12 11 12 13 15 20 13 17 15 12 8 5 7 3 2 3 2 7 7 5 1 2 3 3 0 1 3 4 5 6 9 9 9 10 12 8 14 5 7 11 11 4 2 4
12 11 12 12 13 15 12 9 20 16 12 8 7 6 2 2 0 7 10 10 3 2 3 4 2 2 1 4 6 3 5 8 8 8 9 12 10 11 18 7 13 11 15 2 4
11 10 11 13 14 15 18 12 17 16 13 8 10 5 1 5 5 6 7 4 5 0 1 1 3 2 2 3 3 5 9 10 10 12 10 13 13 6 18 7 13 13 11 9 4
11 9 10 13 15 23 7 19 17 15 13 11 9 3 0 3 6 6 6 4 4 2 2 6 5 6 4 5 5 5 6 12 11 11 12 10 17 16 10 11 14 15 10 9 7
8 9 9 11 11 13 19 18 16 14 11 9 7 2 3 2 3 6 3 3 6 2 3 3 6 2 1 2 6 5 4 6 3 6 9 6 19 19 9 10 17 11 13 12 8
6 7 10 12 9 10 18 19 13 11 10 8 2 1 3 1 3 5 5 5 6 3 2 1 3 2 5 3 3 3 5 7 13 10 12 10 18 22 14 13 17 13 14 13 8
5 8 13 17 15 13 21 14 15 12 6 5 2 2 2 3 4 6 4 3 3 5 2 1 3 3 0 3 4 5 4 9 13 7 15 16 19 19 12 10 16 19 14 11 8
6 10 15 11 30 27 17 8 5 4 2 3 4 1 7 4 4 1 3 3 1 1 2 1 1 7 9 8 7 9 13 17 18 20 17 15 14 18 15 6 11 17 17 10 6
9 10 15 24 23 17 5 4 3 2 4 4 4 3 4 3 4 5 4 3 3 4 3 3 9 10 9 10 13 12 16 18 16 16 12 12 17 9 10 5 13 13 9 8 2
9 6 11 12 12 6 5 2 4 6 5 1 3 2 3 3 0 4 5 2 1 2 5 7 3 8 5 11 13 12 13 14 13 12 8 2 8 11 5 12 19 18 7 7 8
9 6 10 12 5 1 2 3 5 3 5 1 3 2 3 0 4 5 4 2 2 1 2 6 6 9 8 11 13 12 10 7 8 5 3 5 6 3 4 11 15 13 6 7 7
14 22 19 6 7 2 1 3 4 3 6 4 3 0 4 2 8 2 4 3 3 3 2 2 3 7 6 8 8 10 7 3 14 6 5 7 5 5 8 5 4 7 9 7 8
12 13 6 4 3 2 3 4 2 5 1 3 4 3 3 4 6 6 3 1 1 2 6 7 3 3 6 8 11 9 5 8 2 2 5 4 9 2 4 5 6 6 3 8 8
16 13 7 3 2 4 3 3 6 7 4 3 5 4 5 5 6 8 6 4 3 1 3 5 5 4 5 6 2 3 2 3 4 5 3 8 5 0 9 7 7 7 7 3 5
14 15 12 8 3 5 3 5 11 2 4 3 3 3 3 4 4 8 3 2 5 4 2 5 7 3 4 5 4 2 4 3 5 4 3 3 5 6 13 9 4 4 6 9 14
9 4 4 6 7 4 4 7 6 2 3 2 2 2 3 2 2 4 4 4 1 2 1 4 5 3 7 5 4 2 2 2 3 1 3 4 2 2 16 14 11 11 9 13 14
3 4 3 7 6 4 5 5 3 3 5 3 2 5 2 3 1 3 1 4 4 2 2 3 4 5 4 4 6 6 3 3 2 4 4 3 4 6 11 9 10 11 17 18 11
4 4 4 9 3 4 4 3 3 2 2 3 4 6 4 3 5 4 4 1 4 5 3 3 2 7 2 3 4 5 4 3 1 4 1 2 5 1 5 12 17 18 9 9 6
4 4 4 5 4 1 2 1 2 3 2 3 2 3 4 6 5 3 2 1 4 4 2 1 2 3 3 5 3 3 5 2 4 5 4 3 5 4 11 6 8 11 12 10 8
3 1 4 2 4 4 1 2 3 5 5 5 5 3 2 2 2 2 2 4 3 3 3 4 4 4 10 8 7 5 11 3 3 3 4 5 3 4 9 10 8 10 9 8 9
3 2 4 2 2 2 3 1 2 1 3 3 3 3 3 2 4 2 1 4 3 1 4 0 4 4 6 6 5 7 12 8 5 5 2 5 7 4 5 6 6 6 7 7 8
1 1 4 2 4 2 2 3 2 2 2 3 2 5 4 3 3 4 4 6 3 4 2 4 2 3 2 3 2 4 5 10 7 5 6 8 6 3 3 4 4 5 6 7 9
2 2 3 3 2 1 2 1 1 2 2 4 4 3 6 3 2 1 3 3 1 7 5 4 1 2 2 3 2 3 7 7 9 11 8 8 4 5 4 5 5 5 6 7 7
3 2 4 4 4 2 3 1 1 2 2 1 2 0 2 2 4 5 5 3 2 1 3 2 3 2 3 2 2 4 2 2 2 3 6 4 5 6 4 5 3 3 4 4 2
Wind_Direction
310 323 326 330 323 323 316 190 193 205 190 179 192 194 180 308 315 256 266 200 139 116 10 314 282 278 274 312 336 18 219 239 240 248 283 305 309 314 299 302 304 190 137 156 140
311 315 319 325 321 305 340 186 183 190 186 175 154 185 194 12 278 275 234 145 100 100 33 303 11 323 60 291 253 153 239 229 248 288 290 295 313 324 350 339 326 358 45 78 113
318 314 318 314 322 320 310 189 187 172 169 168 164 173 190 44 262 132 94 132 117 164 250 20 2 37 16 326 252 231 242 278 279 284 282 293 303 302 356 322 307 332 288 156 130
312 315 315 321 321 314 312 270 173 169 163 165 169 172 168 164 99 200 135 132 125 9 31 33 347 18 278 319 292 284 277 266 268 267 290 289 296 292 270 262 294 314 207 127 170
290 311 321 325 322 311 312 282 163 156 154 154 182 164 118 144 151 166 127 132 125 27 4 45 39 1 316 333 349 298 301 312 316 315 299 303 291 278 283 274 292 300 307 291 211
277 303 321 323 322 314 299 184 153 141 143 150 161 139 179 107 150 145 136 157 136 44 27 65 26 15 18 330 0 326 337 315 311 300 287 284 294 266 276 306 286 288 290 268 246
270 295 322 330 333 310 205 147 148 137 132 149 156 201 42 118 132 165 147 163 133 64 52 42 56 58 2 328 4 351 329 305 281 274 270 287 276 267 263 285 273 277 281 280 241
289 302 323 330 337 15 132 123 110 122 132 146 166 254 105 37 92 121 179 138 90 108 76 49 78 91 76 338 356 341 317 304 325 282 261 205 262 258 253 251 265 259 269 264 250
308 315 332 324 305 332 130 112 124 126 143 141 132 224 131 358 115 182 187 191 158 141 144 239 90 105 21 54 337 302 270 249 289 256 254 208 251 260 249 250 266 268 251 252 244
0 360 346 315 283 116 113 118 123 116 132 182 190 73 180 156 142 174 210 165 116 157 183 51 55 73 343 147 233 234 250 278 277 271 296 280 245 248 240 239 249 262 260 238 237
34 27 8 22 123 121 119 120 108 84 262 172 228 58 117 76 72 358 135 110 139 219 207 163 54 218 214 208 243 271 274 274 275 281 284 284 255 250 239 236 281 281 244 225 223
64 47 35 113 111 112 92 71 54 185 123 299 1 23 86 159 145 179 118 148 168 205 66 356 257 252 227 236 267 263 283 274 279 270 274 288 263 255 225 247 269 263 212 218 238
56 79 85 75 91 44 72 114 342 359 106 87 276 298 149 141 132 147 138 73 80 248 211 214 214 330 242 237 255 252 258 273 257 301 259 270 284 248 228 195 244 258 210 211 205
40 185 152 140 73 75 55 343 340 357 91 96 217 162 115 282 56 106 82 94 142 270 240 249 241 254 271 259 239 275 249 252 289 288 261 84 294 312 292 259 218 222 195 190 189
67 97 110 175 124 128 332 312 310 52 74 261 111 273 158 170 156 98 99 80 207 195 168 265 235 226 249 242 181 238 237 243 269 216 284 221 240 332 346 227 334 288 230 209 185
102 87 101 60 59 45 277 314 13 52 308 303 145 194 197 199 177 128 165 64 33 226 215 253 296 236 229 256 254 274 346 289 133 174 248 245 186 359 344 286 298 318 356 170 166
106 80 50 60 64 315 333 45 51 85 275 272 218 186 234 195 191 170 185 195 208 4 271 196 226 230 214 263 222 72 283 274 176 216 17 100 154 105 310 300 270 308 336 181 162
83 78 63 53 340 335 51 63 69 170 204 209 201 205 250 174 207 191 152 267 225 250 287 355 334 230 161 199 249 231 218 319 351 34 51 84 2 350 337 2 339 24 327 87 54
107 56 51 350 355 25 65 55 171 251 279 158 350 248 273 229 177 169 152 4 206 91 145 3 286 278 230 216 214 359 303 242 271 286 80 350 44 343 10 28 32 52 52 63 65
53 64 37 332 341 42 67 112 86 330 326 331 258 193 107 347 88 138 93 348 315 352 140 294 301 226 275 223 242 206 223 294 36 36 66 352 42 23 359 27 63 78 60 53 51
42 58 311 335 39 45 99 92 127 247 57 37 324 9 37 348 30 45 1 245 352 302 171 280 202 298 10 340 307 341 333 306 153 145 133 51 55 328 27 52 60 62 66 89 56
59 62 306 357 37 41 66 83 269 322 307 314 274 357 2 17 18 67 87 286 332 309 337 277 243 292 248 269 291 270 293 360 86 7 60 89 47 228 186 208 101 81 73 72 63
73 68 308 28 71 348 254 87 48 24 0 360 352 347 314 320 75 36 69 261 339 11 356 346 349 2 346 349 351 358 336 299 111 58 22 90 93 13 56 68 70 78 72 70 65
100 25 321 14 224 291 18 45 112 260 289 320 290 295 309 337 42 77 6 220 266 269 215 57 39 132 167 222 251 327 345 5 83 76 64 55 132 46 62 79 72 70 59 55 45
54 225 194 294 328 83 67 335 104 55 317 256 335 28 307 38 1 26 351 0 284 344 327 110 89 62 300 228 331 332 356 11 67 156 109 175 119 162 138 108 93 86 59 45 39
1 82 353 285 309 110 26 256 125 164 43 342 58 40 41 69 87 8 321 33 68 323 6 11 188 64 304 352 101 31 359 19 50 77 82 117 117 163 151 107 78 75 65 53 35
321 318 99 294 312 72 232 167 50 50 298 36 305 296 67 271 302 278 290 248 253 4 333 34 130 92 271 328 16 338 295 20 76 41 149 183 187 154 129 129 155 149 109 108 195